Date String (YYYY-MM-DD hh:mm:ss) UTC,Instrument flags,absolute air pressure of the measurement (hPa),sample flow rate (lpm),inlet stack bypass flow (lpm),air temperature of the measurement (°C),ambient temperature measured by the external sensor (°C),aerosol sample conditioner tube jacket temperature (°C),OPC LED temperature (°C),internal box temperature (°C),relative humidity of the measurement (%),span deviation,mass concentration of particles derived from Lorenz-Mie calculation of OPC scattering (μg/m³),mass concentration of particles derived from Lorenz-Mie calculation of OPC scattering (μg/m³),mass concentration of particles derived from Lorenz-Mie calculation of OPC scattering (μg/m³)
DateTimeUTC,F1_M11,P_M11,Q1_M11,Q2_M11,T1_M11,T2_M11,T3_M11,T4_M11,T5_M11,U1_M11,ZSPAN_M11,X0_M11,X2_M11,X1_M11
2024-05-26 17:00:00,SystemResetWarning,0825.9,5.00,000.00,026.8,026.0,000.0,034.9,028.5,013.1,0000.0,0006.67,0002.37,0001.88
2024-05-26 17:01:00,SystemResetWarning,0825.9,5.00,000.00,026.8,026.0,000.0,034.9,028.5,013.2,0000.0,0006.68,0002.38,0001.89
2024-05-26 17:02:00,SystemResetWarning,0825.9,5.00,000.00,026.8,026.1,000.0,034.9,028.5,012.8,0000.0,0006.25,0002.40,0001.89
2024-05-26 17:03:00,SystemResetWarning,0825.8,5.00,000.00,026.8,026.1,000.0,034.9,028.6,012.6,0000.0,0005.96,0002.41,0001.90
2024-05-26 17:04:00,SystemResetWarning,0825.9,5.00,000.00,026.9,026.1,000.0,034.9,028.6,012.7,0000.0,0005.97,0002.44,0001.91
2024-05-26 17:05:00,SystemResetWarning,0825.8,5.00,000.00,026.9,026.1,000.0,035.0,028.6,012.3,0000.0,0005.90,0002.42,0001.89
2024-05-26 17:06:00,SystemResetWarning,0825.8,5.00,000.00,026.9,026.1,000.0,035.0,028.6,012.0,0000.0,0005.68,0002.40,0001.89
2024-05-26 17:07:00,SystemResetWarning,0825.8,5.00,000.00,026.9,026.1,000.0,035.0,028.6,012.1,0000.0,0005.30,0002.42,0001.89
2024-05-26 17:08:00,SystemResetWarning,0825.9,5.00,000.00,026.9,026.1,000.0,035.0,028.6,012.0,0000.0,0005.30,0002.44,0001.91
2024-05-26 17:09:00,SystemResetWarning,0825.8,5.00,000.00,026.9,026.2,000.0,035.0,028.7,012.2,0000.0,0004.17,0002.43,0001.90
2024-05-26 17:10:00,SystemResetWarning,0825.8,5.00,000.00,026.9,026.2,000.0,035.0,028.7,012.1,0000.0,0003.57,0002.43,0001.92
2024-05-26 17:11:00,SystemResetWarning,0825.8,5.00,000.00,026.9,026.2,000.0,035.0,028.7,012.4,0000.0,0003.58,0002.44,0001.92
2024-05-26 17:12:00,SystemResetWarning,0825.8,5.00,000.00,026.9,026.2,000.0,035.0,028.7,012.2,0000.0,0004.46,0002.43,0001.92
2024-05-26 17:13:00,SystemResetWarning,0825.8,5.00,000.00,026.9,026.2,000.0,035.1,028.7,011.8,0000.0,0004.77,0002.38,0001.92
2024-05-26 17:14:00,SystemResetWarning,0825.8,5.00,000.00,026.9,026.2,000.0,035.1,028.7,012.1,0000.0,0004.78,0002.39,0001.93
2024-05-26 17:15:00,SystemResetWarning,0825.9,5.00,000.00,027.0,026.2,000.0,035.1,028.7,012.2,0000.0,0004.72,0002.38,0001.93
2024-05-26 17:16:00,SystemResetWarning,0825.9,5.00,000.00,027.0,026.2,000.0,035.1,028.7,012.1,0000.0,0004.92,0002.47,0001.96
2024-05-26 17:17:00,SystemResetWarning,0825.9,5.00,000.00,027.0,026.2,000.0,035.1,028.7,012.3,0000.0,0004.98,0002.50,0001.98
2024-05-26 17:18:00,SystemResetWarning,0825.9,5.00,000.00,027.0,026.2,000.0,035.1,028.7,012.3,0000.0,0004.95,0002.49,0001.99
2024-05-26 17:19:00,SystemResetWarning,0825.9,5.00,000.00,027.0,026.2,000.0,035.1,028.7,012.2,0000.0,0004.87,0002.49,0002.00
2024-05-26 17:20:00,SystemResetWarning,0825.9,5.00,000.00,027.0,026.2,000.0,035.1,028.7,011.9,0000.0,0004.88,0002.50,0002.00
2024-05-26 17:21:00,SystemResetWarning,0825.9,5.00,000.00,027.0,026.2,000.0,035.1,028.7,011.9,0000.0,0004.93,0002.45,0001.99
2024-05-26 17:22:00,SystemResetWarning,0825.9,5.00,000.00,027.0,026.2,000.0,035.1,028.7,012.1,0000.0,0005.00,0002.48,0001.99
2024-05-26 17:23:00,SystemResetWarning,0825.9,5.00,000.00,027.0,026.2,000.0,035.1,028.8,012.1,0000.0,0004.28,0002.52,0002.00
2024-05-26 17:24:00,SystemResetWarning,0825.9,5.01,000.00,027.0,026.2,000.0,035.2,028.8,012.2,0000.0,0003.81,0002.52,0002.00
2024-05-26 17:25:00,SystemResetWarning,0826.0,5.00,000.00,027.0,026.2,000.0,035.2,028.8,012.0,0000.0,0003.81,0002.49,0001.99
2024-05-26 17:26:00,SystemResetWarning,0826.0,5.00,000.00,027.0,026.2,000.0,035.2,028.8,012.5,0000.0,0004.21,0002.49,0001.98
2024-05-26 17:27:00,SystemResetWarning,0826.0,5.00,000.00,027.0,026.2,000.0,035.2,028.8,012.6,0000.0,0004.54,0002.47,0001.96
2024-05-26 17:28:00,SystemResetWarning,0826.1,5.00,000.00,027.1,026.3,000.0,035.2,028.8,012.4,0000.0,0004.67,0002.48,0001.96
2024-05-26 17:29:00,SystemResetWarning,0826.1,5.00,000.00,027.1,026.3,000.0,035.2,028.8,012.7,0000.0,0004.94,0002.55,0001.97
2024-05-26 17:30:00,SystemResetWarning,0826.2,5.00,000.00,027.1,026.3,000.0,035.2,028.8,011.9,0000.0,0005.06,0002.59,0001.98
2024-05-26 17:31:00,SystemResetWarning,0826.0,5.00,000.00,027.1,026.3,000.0,035.2,028.8,012.2,0000.0,0005.08,0002.58,0001.98
2024-05-26 17:32:00,SystemResetWarning,0825.9,5.00,000.00,027.1,026.3,000.0,035.2,028.8,012.3,0000.0,0005.14,0002.64,0002.00
2024-05-26 17:33:00,SystemResetWarning,0825.9,5.00,000.00,027.1,026.3,000.0,035.2,028.8,012.3,0000.0,0005.16,0002.63,0001.99
2024-05-26 17:34:00,SystemResetWarning,0825.9,5.00,000.00,027.1,026.3,000.0,035.3,028.9,012.1,0000.0,0005.15,0002.59,0001.98
2024-05-26 17:35:00,SystemResetWarning,0826.0,5.01,000.00,027.1,026.4,000.0,035.3,028.9,012.1,0000.0,0005.12,0002.61,0001.98
2024-05-26 17:36:00,SystemResetWarning,0826.0,5.00,000.00,027.1,026.4,000.0,035.3,028.9,012.0,0000.0,0005.03,0002.60,0001.99
2024-05-26 17:37:00,SystemResetWarning,0826.0,5.01,000.00,027.1,026.4,000.0,035.3,028.9,012.1,0000.0,0004.72,0002.61,0001.99
2024-05-26 17:38:00,SystemResetWarning,0825.9,4.99,000.00,027.2,026.4,000.0,035.3,028.9,012.3,0000.0,0004.54,0002.61,0001.99
2024-05-26 17:39:00,SystemResetWarning,0825.8,4.99,000.00,027.2,026.4,000.0,035.3,028.9,012.3,0000.0,0004.45,0002.62,0001.98
2024-05-26 17:40:00,SystemResetWarning,0825.9,5.00,000.00,027.2,026.4,000.0,035.3,028.9,011.9,0000.0,0004.29,0002.53,0001.96
2024-05-26 17:41:00,SystemResetWarning,0825.9,5.02,000.00,027.2,026.4,000.0,035.3,028.9,011.9,0000.0,0005.10,0002.51,0001.95
2024-05-26 17:42:00,SystemResetWarning,0825.9,5.00,000.00,027.2,026.4,000.0,035.3,028.9,011.9,0000.0,0005.19,0002.53,0001.96
2024-05-26 17:43:00,SystemResetWarning,0825.9,5.00,000.00,027.2,026.4,000.0,035.3,028.9,012.3,0000.0,0005.13,0002.51,0001.96
2024-05-26 17:44:00,SystemResetWarning,0825.9,5.00,000.00,027.2,026.4,000.0,035.3,028.9,012.3,0000.0,0005.34,0002.56,0001.96
2024-05-26 17:45:00,SystemResetWarning,0825.9,5.00,000.00,027.2,026.4,000.0,035.4,028.9,012.0,0000.0,0005.56,0002.63,0001.97
2024-05-26 17:46:00,SystemResetWarning,0825.9,5.00,000.00,027.2,026.4,000.0,035.4,028.9,012.0,0000.0,0005.50,0002.61,0001.97
2024-05-26 17:47:00,SystemResetWarning,0825.9,4.99,000.00,027.2,026.4,000.0,035.4,028.9,012.0,0000.0,0005.53,0002.63,0001.97
2024-05-26 17:48:00,SystemResetWarning,0825.9,5.00,000.00,027.2,026.4,000.0,035.4,029.0,012.1,0000.0,0005.53,0002.63,0001.97
2024-05-26 17:49:00,SystemResetWarning,0825.9,5.00,000.00,027.2,026.5,000.0,035.4,029.0,012.2,0000.0,0005.42,0002.62,0001.97
2024-05-26 17:50:00,SystemResetWarning,0825.9,5.00,000.00,027.2,026.5,000.0,035.4,028.9,012.1,0000.0,0005.46,0002.61,0001.99
2024-05-26 17:51:00,SystemResetWarning,0825.9,5.00,000.00,027.2,026.4,000.0,035.4,028.9,011.8,0000.0,0005.55,0002.65,0001.99
2024-05-26 17:52:00,SystemResetWarning,0825.9,5.00,000.00,027.2,026.5,000.0,035.4,029.0,012.1,0000.0,0004.69,0002.65,0001.98
2024-05-26 17:53:00,SystemResetWarning,0825.9,5.00,000.00,027.2,026.5,000.0,035.4,029.0,012.3,0000.0,0004.48,0002.59,0001.97
2024-05-26 17:54:00,SystemResetWarning,0825.8,5.00,000.00,027.2,026.5,000.0,035.4,029.0,012.0,0000.0,0004.58,0002.55,0001.95
2024-05-26 17:55:00,SystemResetWarning,0825.8,5.00,000.00,027.2,026.5,000.0,035.4,029.0,011.7,0000.0,0004.68,0002.49,0001.94
2024-05-26 17:56:00,SystemResetWarning,0825.8,4.99,000.00,027.2,026.5,000.0,035.4,029.0,012.0,0000.0,0004.46,0002.45,0001.94
2024-05-26 17:57:00,SystemResetWarning,0825.8,4.99,000.00,027.2,026.5,000.0,035.5,029.0,011.7,0000.0,0004.62,0002.45,0001.93
2024-05-26 17:58:00,SystemResetWarning,0826.0,5.01,000.00,027.3,026.5,000.0,035.5,029.0,011.4,0000.0,0004.71,0002.48,0001.93
2024-05-26 17:59:00,SystemResetWarning,0825.9,5.01,000.00,027.3,026.5,000.0,035.5,029.0,011.4,0000.0,0005.51,0002.47,0001.93
